AO-07 1 07530U 74089B 19206.17680656 -.00000020 00000-0 15519-3 0 9997 2 07530 101.7461 173.4676 0011729 277.7357 151.9030 12.53639070 45092 UO-11 1 14781U 84021B 19206.67269836 .00000011 00000-0 75134-5 0 9998 2 14781 97.6090 229.6387 0008168 187.9580 172.1506 14.83096893904244 LO-19 1 20442U 90005G 19206.74731478 -.00000015 00000-0 10683-4 0 9994 2 20442 98.6497 148.6884 0012636 44.3165 315.9028 14.32929404541687 HUBBLE 1 20580U 90037B 19205.79893196 .00000315 00000-0 82105-5 0 9993 2 20580 28.4703 333.1788 0002735 149.6577 345.3812 15.09247229406355 MET-2/21 1 22782U 93055A 19205.90032958 .00000079 00000-0 57670-4 0 9991 2 22782 82.5504 134.3437 0023733 77.2443 345.9269 13.83821056307877 AO-27 1 22825U 93061C 19206.51224652 -.00000010 00000-0 14087-4 0 9999 2 22825 98.9047 195.9924 0007335 249.5289 110.5106 14.30062892347210 IO-26 1 22826U 93061D 19205.87578568 -.00000005 00000-0 15836-4 0 9993 2 22826 98.8987 195.3281 0007925 239.0488 120.9916 14.30396575347327 FO-29 1 24278U 96046B 19206.37489443 .00000013 00000-0 46344-4 0 9997 2 24278 98.5423 354.8151 0351014 144.7682 217.7217 13.53092772132764 NOAA-15 1 25338U 98030A 19206.53629299 .00000044 00000-0 37056-4 0 9997 2 25338 98.7451 227.7339 0011338 131.9940 228.2207 14.25923107102508 GO-32 1 25397U 98043D 19205.88444242 -.00000020 00000-0 10533-4 0 9992 2 25397 098.6896 145.5927 0000548 357.5274 002.5902 14.23668073092804 ISS 1 25544U 98067A 19207.04085751 .00000393 00000-0 14498-4 0 9994 2 25544 51.6430 168.5013 0006550 179.2186 300.2143 15.51001786181282 NO-44 1 26931U 01043C 19206.34547153 -.00000071 00000-0 47678-5 0 9995 2 26931 67.0508 269.0966 0007230 276.2234 83.8043 14.30547597930211 SO-50 1 27607U 02058C 19206.55163423 -.00000058 00000-0 12839-4 0 9995 2 27607 64.5556 296.9021 0080045 249.4314 109.8188 14.75560368892478 CO-55 1 27844U 03031E 19206.58887557 .00000026 00000-0 31525-4 0 9991 2 27844 98.6835 214.2499 0008617 286.9058 73.1174 14.22186532833536 CO-57 1 27848U 03031J 19206.59152362 .00000019 00000-0 28479-4 0 9991 2 27848 98.6912 214.7606 0008645 299.9826 60.0493 14.21780800833388 RS-22 1 27939U 03042A 19206.68060977 -.00000013 00000-0 63251-5 0 9997 2 27939 98.0458 341.7849 0012024 314.3313 45.6905 14.66791490845967 NOAA-18 1 28654U 05018A 19206.40155162 .00000052 00000-0 52802-4 0 9999 2 28654 99.0930 253.9163 0015299 76.2655 284.0218 14.12440003730704 CO-58 1 28895U 05043F 19206.08215189 .00000090 00000-0 26091-4 0 9997 2 28895 97.9641 347.5756 0015689 233.8084 126.1669 14.63677097732805 Falconsat-3 1 30776U 07006E 19206.47108554 .00001259 00000-0 36286-4 0 9994 2 30776 35.4336 215.9283 0001772 85.3569 274.7360 15.36292758686346 CO-65 1 32785U 08021C 19206.19228732 .00000116 00000-0 18132-4 0 9995 2 32785 97.5501 204.1862 0014129 136.7166 223.5164 14.88323452609114 AAUSAT2 1 32788U 08021F 19206.60218337 .00000354 00000-0 37532-4 0 9993 2 32788 97.4961 220.6997 0013504 78.0796 282.1938 14.94754185610436 DO-64 1 32789U 08021G 19206.13786280 .00000869 00000-0 61987-4 0 9991 2 32789 97.4620 254.6992 0012197 9.3269 350.8183 15.07015178612456 CO-66 1 32791U 08021J 19206.75337077 .00000267 00000-0 32447-4 0 9999 2 32791 97.5279 210.7318 0014889 111.8962 248.3842 14.90839298609631 RS-30 1 32953U 08025A 19206.74768357 .00000021 00000-0 75656-4 0 9998 2 32953 82.5028 121.7246 0020396 49.0903 311.1941 12.43090724506910 PRISM 1 33493U 09002B 19206.36640635 -.00000211 00000-0 -12886-4 0 9999 2 33493 98.1210 128.7128 0016433 63.1265 297.1632 14.96681693570638 NOAA-19 1 33591U 09005A 19206.59801294 .00000058 00000-0 56870-4 0 9994 2 33591 99.1810 198.6168 0012911 275.7370 84.2329 14.12367035539114 TISAT-1 1 36799U 10035E 19206.38870018 .00000215 00000-0 27823-4 0 9990 2 36799 98.1602 359.7668 0011492 331.3873 28.6712 14.91122268490231 JUGNU 1 37839U 11058B 19206.12846633 .00000286 00000-0 10956-4 0 9997 2 37839 19.9614 113.8180 0018866 9.0926 134.1970 14.12654513402417 SRMSAT 1 37841U 11058D 19206.30245427 .00000281 00000-0 93343-5 0 9991 2 37841 19.9709 170.2961 0011712 238.2306 274.3000 14.10635404401876 AO-71 1 37854U 11061E 19206.35592432 .00000631 00000-0 40342-4 0 9994 2 37854 101.6983 123.4425 0160568 317.0319 41.8443 15.06490662422515 HRBE 1 37855U 11061F 19205.68803800 .00000852 00000-0 50607-4 0 9994 2 37855 101.7113 119.7612 0173397 330.1911 28.9509 15.05495775422198 ALMASAT-1 1 38078U 12006B 19206.30862441 .00017915 41128-5 99913-4 0 9990 2 38078 69.4258 161.4633 0159029 205.9056 310.7096 15.64527413403213 HORYU-2 1 38340U 12025D 19206.73209816 .00000090 00000-0 21160-4 0 9995 2 38340 98.3265 246.4295 0011678 13.2454 346.9058 14.75730978386628 RS-40 1 38735U 12041C 19206.74617888 .00000034 00000-0 17343-3 0 9999 2 38735 82.4733 204.9794 0016949 151.0804 209.1218 12.42579539317155 BEESAT-3 1 39135U 13015F 19206.38484215 .00000333 00000-0 26401-4 0 9990 2 39135 64.8696 280.3703 0026277 314.1182 45.7782 15.17514042345813 BEESAT-2 1 39136U 13015G 19206.23789955 .00000165 00000-0 18354-4 0 9995 2 39136 64.8703 284.7746 0021005 299.6636 60.2398 15.16940526345716 ZACUBE-1 1 39417U 13066B 19205.98349668 .00000111 00000-0 20464-4 0 9993 2 39417 97.5618 217.4452 0057331 275.2036 84.2637 14.81127424306419 TRITON-1 1 39427U 13066M 19206.87996598 .00000170 00000-0 34808-4 0 9995 2 39427 97.6786 181.9639 0115037 46.9443 314.1325 14.67854701303798 GOMX-1 1 39430U 13066Q 19206.85602597 .00000082 00000-0 23637-4 0 9990 2 39430 97.7497 160.9671 0151966 136.6820 224.6451 14.59263008302027 LO-74 1 39440U 13066AA 19206.56558137 .00000110 00000-0 22463-4 0 9997 2 39440 97.6029 202.8266 0079383 326.1973 33.4191 14.75865740305413 AO-73 1 39444U 13066AE 19205.62641621 .00000152 00000-0 25164-4 0 9995 2 39444 97.5597 219.0889 0056433 269.9584 89.5163 14.81948211305255 SPROUT 1 39770U 14029E 19206.76718148 .00000272 00000-0 36207-4 0 9995 2 39770 97.8855 309.8214 0008780 331.9171 28.1563 14.87368299280344 DUCHIFAT-1 1 40021U 14033M 19206.73219466 .00000289 00000-0 35329-4 0 9999 2 40021 97.9232 131.4487 0011526 291.5647 68.4342 14.90647255277060 NANOSATCBR1 1 40024U 14033Q 19206.71136847 .00000147 00000-0 21263-4 0 9996 2 40024 97.9127 128.7564 0010867 295.7140 64.2955 14.89859486276952 EO-79 1 40025U 14033R 19206.19126775 .00000172 00000-0 24279-4 0 9996 2 40025 97.9049 125.8164 0011263 303.9661 56.0485 14.88956717276750 DTUSAT-2 1 40030U 14033W 19206.33174960 .00000120 00000-0 18904-4 0 9998 2 40030 97.8964 124.0557 0010620 298.8419 61.1731 14.88548020276707 EO-80 1 40032U 14033Y 19206.20427523 .00000118 00000-0 18764-4 0 9993 2 40032 97.8972 123.9296 0010585 300.0011 60.0155 14.88490835276674 ANTELSAT 1 40034U 14033AA 19206.22429029 .00000099 00000-0 22193-4 0 9999 2 40034 97.7567 71.8410 0058299 340.1293 19.7645 14.74114048274054 VELOX-1 1 40057U 14034E 19206.85222837 .00000141 00000-0 27247-4 0 9995 2 40057 98.2404 330.7508 0012172 112.9803 247.2698 14.77680511273255 DAURIA DX 1 1 40071U 14037C 19206.84238928 .00000021 00000-0 10161-4 0 9995 2 40071 98.4314 2.6303 0009547 104.2316 255.9963 14.81277906272756 UKUBE-1 1 40074U 14037F 19206.71297396 .00000147 00000-0 24870-4 0 9999 2 40074 98.4417 10.7815 0006266 92.0904 268.1032 14.84068835273142 HODOYOSHI-1 1 40299U 14070B 19206.83378736 .00000238 00000-0 12950-4 0 9993 2 40299 97.3481 285.8169 0011295 271.9220 227.0480 15.23391820261925 CHUBUSAT-1 1 40300U 14070C 19206.81305146 .00000241 00000-0 13504-4 0 9999 2 40300 97.3255 280.0561 0018769 288.2160 211.2529 15.22112671261661 QSAT-EOS 1 40301U 14070D 19206.82926578 .00000812 00000-0 34177-4 0 9992 2 40301 97.3254 283.2932 0024109 267.8195 231.0226 15.25986567261956 FIREBIRD FU3 1 40377U 15003B 19206.51262948 .00001355 00000-0 57315-4 0 9994 2 40377 99.1149 194.2907 0126279 328.3381 31.0295 15.18889292247515 FIREBIRD FU4 1 40378U 15003C 19206.82902515 .00001381 00000-0 58256-4 0 9994 2 40378 99.1153 194.7503 0126470 327.1651 32.1765 15.18898736247560 GRIFEX 1 40379U 15003D 19206.76914996 .00001051 00000-0 48930-4 0 9996 2 40379 99.1146 188.5150 0134927 346.4150 13.3459 15.15552910247206 NO-84 1 40654U 15025D 19206.47251654 .00007080 00000 0 99626-4 0 6755 2 40654 54.9895 4.9411 0138863 61.4581 300.0261 15.47570051118146 NO-83 1 40655U 15025E 19206.48891906 .00040007 11247-4 17752-3 0 8316 2 40655 54.9654 241.0512 0051270 129.3203 231.2401 15.83293323119547 DEORBITSAIL 1 40719U 15032E 19206.65183181 .00000218 00000-0 38302-4 0 9994 2 40719 97.9046 97.7194 0016002 181.5686 178.5477 14.76758176217718 NUDT-PHONESAT 1 40900U 15049B 19206.84068610 .00001129 00000-0 51122-4 0 9991 2 40900 97.4369 215.8099 0014423 58.8337 64.0641 15.22869097213315 XW-2A 1 40903U 15049E 19206.90672726 .00001048 00000-0 26612-4 0 9996 2 40903 97.3341 249.8761 0014147 17.8441 108.9144 15.41935089215981 XW-2C 1 40906U 15049H 19206.84213258 .00000090 00000-0 81799-5 0 9997 2 40906 97.4676 208.3043 0016511 71.9865 49.2878 15.15695735212628 XW-2D 1 40907U 15049J 19206.88018846 .00000435 00000-0 26141-4 0 9990 2 40907 97.4653 208.0194 0015828 69.9494 46.0965 15.15887731212646 LILACSAT-2 1 40908U 15049K 19206.86677666 .00000365 00000-0 23777-4 0 9994 2 40908 97.4788 206.8140 0017513 75.3884 333.8114 15.13816494212436 XW-2E 1 40909U 15049L 19206.88357663 .00000437 00000-0 24872-4 0 9996 2 40909 97.4596 210.8886 0015238 65.4548 343.5519 15.17817600212830 XW-2F 1 40910U 15049M 19206.86749619 .00000698 00000-0 38282-4 0 9991 2 40910 97.4625 210.0470 0016335 63.7161 22.5739 15.17333260212650 XW-2B 1 40911U 15049N 19206.84916847 .00000203 00000-0 14064-4 0 9993 2 40911 97.4681 208.6440 0015710 70.5197 48.9002 15.15816206212530 DCBB 1 40912U 15049P 19206.84828902 .00000492 00000-0 26256-4 0 9994 2 40912 97.4493 213.7181 0016333 46.8030 73.9728 15.19647760212955 TW-1C 1 40926U 15051B 19206.89139096 .00006747 00000-0 97379-4 0 9999 2 40926 97.1328 253.0257 0006480 224.8556 253.4533 15.56281200215943 TW-1A 1 40928U 15051D 19206.90566170 .00001813 00000-0 46001-4 0 9995 2 40928 97.1431 237.3855 0009551 304.1566 177.3187 15.40927181214906 IO-86 1 40931U 15052B 19202.51269834 .00000614 00000-0 -34879-5 0 9990 2 40931 6.0001 182.6065 0012573 262.3126 97.5538 14.76609943206121 LQSat 1 40958U 15057A 19206.17596108 -.00000012 00000-0 57134-5 0 9998 2 40958 97.8967 274.3839 0019434 122.1576 238.1521 14.73084539204175 AO-85 1 40967U 15058D 19206.18013726 -.00000055 00000 0 12966-4 0 7548 2 40967 64.7772 47.5716 0196141 191.1496 168.5235 14.75963700113124 ATHENOXAT-1 1 41168U 15077C 19206.67511865 .00001319 00000-0 33999-4 0 9998 2 41168 14.9890 305.0366 0011579 248.5378 111.3708 15.13673772199592 ChubuSat-2 1 41338U 16012B 19206.22088624 .00000205 00000-0 91838-5 0 9990 2 41338 31.0027 272.6241 0013702 104.8142 255.4012 15.00160654188409 ChubuSat-3 1 41339U 16012C 19206.85139907 .00000182 00000-0 73651-5 0 9998 2 41339 31.0112 266.6627 0013407 118.7466 241.4515 15.00335811188492 Horyu-4 1 41340U 16012D 19206.33968078 .00000276 00000-0 14275-4 0 9992 2 41340 31.0043 260.9728 0013893 132.4226 227.7587 15.01279475188526 OUFTI-1 1 41458U 16025C 19205.80359380 .00001296 00000-0 70207-4 0 9997 2 41458 98.1018 294.4844 0165314 235.4098 123.1439 15.05855508178008 e-st@r-II 1 41459U 16025D 19206.75911774 .00000252 00000-0 17591-4 0 9992 2 41459 98.1010 295.1296 0166355 233.3857 125.1950 15.05497576178126 AAUSAT4 1 41460U 16025E 19206.82135108 .00000393 00000-0 24219-4 0 9992 2 41460 98.0952 296.5271 0156609 225.5746 133.2563 15.07391271178263 LO-87 1 41557U 16033B 19206.80087284 .00000762 00000-0 31251-4 0 9991 2 41557 97.4180 294.0863 0014397 160.3910 199.7885 15.27265025175756 NuSat2 1 41558U 16033C 19206.85456249 .00000753 00000-0 29216-4 0 9996 2 41558 97.4207 295.3062 0013431 160.2498 199.9265 15.29173065175815 Lapan A3 1 41603U 16040E 19206.85292258 -.00000079 00000-0 -53595-6 0 9995 2 41603 97.3574 264.6446 0011902 270.3389 211.8280 15.19724805171382 Swayam 1 41607U 16040J 19206.71379154 .00000784 00000-0 35910-4 0 9995 2 41607 97.3632 268.0682 0011701 259.7178 100.2740 15.23357423171515 Pratham 1 41783U 16059A 19206.73706692 .00000026 00000-0 14376-4 0 9995 2 41783 98.0648 265.4965 0032180 267.3946 92.3572 14.63000829150960 AlSat 1N 1 41789U 16059G 19206.76248886 .00000060 00000-0 20482-4 0 9993 2 41789 98.0674 267.5948 0027030 256.1117 103.7076 14.64251414151071 ScatSat 1 41790U 16059H 19206.89147819 -.00000002 00000-0 10565-4 0 9991 2 41790 98.2066 251.0714 0004545 197.9375 162.1649 14.50885694149725 TY-1 1 41844U 16066D 19206.91598566 .00000511 00000-0 23780-4 0 9998 2 41844 97.4045 213.8454 0016616 60.1083 3.6351 15.24316617150366 Pegasus-1 1 41846U 16066F 19206.62953597 .00000178 00000-0 36492-4 0 9990 2 41846 98.7086 247.4134 0368561 128.5105 234.9742 14.37590841141862 CAS-2T 1 41847U 16066G 19206.69696458 .00000010 00000-0 11170-4 0 9999 2 41847 98.7029 248.0111 0366956 124.7779 238.8527 14.37995774142312 EO-88 1 42017U 17008BX 19206.23230257 .00000830 00000-0 35502-4 0 9992 2 42017 97.4009 272.9473 0007446 51.6369 308.5537 15.25590853135496 nSIGHT1 1 42726U 98067MF 19206.77444545 .00013442 00000-0 10291-3 0 9999 2 42726 51.6359 118.8696 0003584 329.1982 30.8806 15.72487736123657 CAS-4B 1 42759U 17034B 19206.86448888 -.00000081 00000-0 85720-5 0 9991 2 42759 43.0201 26.6152 0009995 126.9683 11.0777 15.09601102116453 CAS-4A 1 42761U 17034D 19206.75551756 -.00000026 00000-0 11935-4 0 9996 2 42761 43.0202 26.7270 0010437 127.9275 348.1323 15.09678662116434 UCLSat 1 42765U 17036A 19206.66458048 .00000631 00000-0 29921-4 0 9997 2 42765 97.3485 263.8805 0013271 99.0445 261.2294 15.22790420116094 NIUSat 1 42766U 17036B 19206.14560125 .00000584 00000-0 29178-4 0 9992 2 42766 97.3481 261.7059 0017463 92.8056 267.5178 15.21146763115773 LituanicaSAT 2 1 42768U 17036D 19206.70760050 .00001197 00000-0 53890-4 0 9994 2 42768 97.3521 263.5447 0016924 90.6317 269.6859 15.22877779115945 Aalto 1 1 42775U 17036L 19206.69285454 .00000433 00000-0 22306-4 0 9990 2 42775 97.3468 262.5715 0015765 90.8523 269.4519 15.21370638115833 URSA MAIOR 1 42776U 17036M 19206.12424636 .00000495 00000-0 24993-4 0 9998 2 42776 97.3478 262.1759 0015585 92.5901 267.7119 15.21505354115751 Max Valier Sat 1 42778U 17036P 19205.81926336 .00000511 00000-0 25299-4 0 9998 2 42778 97.3519 262.6860 0014206 97.1709 263.1143 15.22054915115731 Pegasus 1 42784U 17036V 19205.70922652 .00000650 00000-0 30936-4 0 9998 2 42784 97.3490 262.7554 0013800 102.5102 257.7680 15.22536569115740 NUDATSat 1 42787U 17036Y 19206.20966942 .00001218 00000-0 53842-4 0 9999 2 42787 97.3520 263.9816 0012558 92.7138 267.5517 15.23524296115708 SUCHAI 1 1 42788U 17036Z 19205.90358553 .00000796 00000-0 36775-4 0 9995 2 42788 097.3494 263.2686 0013376 101.1711 259.1030 15.22959835115862 SKCUBE 1 42789U 17036AA 19205.79033056 .00000720 00000-0 33665-4 0 9993 2 42789 097.3490 263.0938 0013238 101.5647 258.7077 15.22856395115768 VZLUSAT 1 1 42790U 17036AB 19205.67111183 .00000956 00000-0 42876-4 0 9995 2 42790 097.3505 263.4569 0012833 101.1321 259.1359 15.23515902115772 VENTA 1 1 42791U 17036AC 19205.89550767 .00000651 00000-0 30687-4 0 9994 2 42791 097.3488 263.2480 0012882 101.7244 258.5439 15.22867585115775 Robusta 1B 1 42792U 17036AD 19206.70276842 .00000762 00000-0 35276-4 0 9997 2 42792 97.3490 264.1433 0012835 99.3752 260.8936 15.23026408115928 D-SAT 1 42794U 17036AF 19206.11217134 .00000075 00000-0 11899-4 0 9995 2 42794 97.5368 249.2065 0127080 21.0004 339.6368 14.91110510113768 TechnoSat 1 42829U 17042E 19206.65743904 .00000108 00000-0 16291-4 0 9997 2 42829 97.5598 97.9946 0012913 300.6394 59.3552 14.90982635110441 TOMSK-TPU 120 1 42910U 98067MZ 19206.82861949 .00051812 00000-0 19175-3 0 9994 2 42910 51.6335 95.2515 0000777 347.0840 102.7180 15.87601403110922 TANYUSHA 1 1 42911U 98067NA 19206.87282380 .00895154 11839-4 45254-3 0 9994 2 42911 51.6124 77.7556 0009194 255.4214 212.1736 16.19841646111136 TANYUSHA 2 1 42912U 98067NB 19206.82616042 .00112675 16339-4 26137-3 0 9995 2 42912 51.6337 87.8017 0000450 123.3619 283.7832 15.96965288111027 TNS 0-2 1 42914U 98067ND 19206.07759962 .00058706 00000-0 20774-3 0 9992 2 42914 51.6328 99.5399 0001011 310.2661 49.8256 15.88456164110793 QIKCOM-1 1 42983U 98067NF 19206.43518630 .00002042 00000-0 32148-4 0 9994 2 42983 51.6392 155.7412 0003405 263.6330 96.4275 15.59019766 99071 AO-91 1 43017U 17073E 19206.21059055 .00000491 00000-0 43428-4 0 9997 2 43017 97.7221 126.1405 0259252 39.7693 322.2208 14.78576808 90659 EcAMSat 1 43019U 98067NG 19206.85844757 .00003612 00000-0 47327-4 0 9992 2 43019 51.6400 148.1131 0003794 243.8847 116.1757 15.61540024181537 PICSAT 1 43132U 18004X 19206.74498462 .00000746 00000-0 34123-4 0 9992 2 43132 97.4864 274.4881 0011248 120.2581 239.9770 15.23624667 85149 AO-92 1 43137U 18004AC 19206.14818049 .00000587 00000-0 27571-4 0 9990 2 43137 97.4855 273.8666 0010744 123.4548 236.7717 15.23503560 85049 TianYi 2 1 43155U 18008A 19205.16919769 -.00000063 00000-0 40409-7 0 9994 2 43155 97.4851 276.9626 0017059 198.4639 246.0646 15.11166530 83181 Zhou Enlai 1 43156U 18008B 19206.89107631 .00000615 00000-0 40908-4 0 9996 2 43156 97.4897 278.5379 0014469 188.6807 295.0814 15.10676735 83414 TianYi 6 1 43158U 18008D 19206.81542258 .00000758 00000-0 50098-4 0 9997 2 43158 97.4838 277.9083 0013251 187.7753 305.1504 15.10269497 83360 S-Net G 1 43186U 18014G 19206.79813981 -.00000308 00000-0 -21917-4 0 9997 2 43186 97.7067 114.7104 0009838 238.7798 121.2460 14.96654411 80689 S-Net H 1 43187U 18014H 19206.86482153 -.00000301 00000-0 -21262-4 0 9995 2 43187 97.7065 114.7637 0009834 238.4448 121.5814 14.96654600 80691 S-Net J 1 43188U 18014J 19206.79776687 -.00000321 00000-0 -23091-4 0 9990 2 43188 97.7068 114.7155 0009816 238.7731 121.2529 14.96654278 80688 S-Net K 1 43189U 18014K 19206.79810261 -.00000306 00000-0 -21731-4 0 9990 2 43189 97.7064 114.6951 0009828 238.7175 121.3084 14.96653973 79230 FMN 1 1 43192U 18015A 19206.90415659 .00001139 00000-0 49324-4 0 9991 2 43192 97.4041 334.1892 0016815 157.9463 319.7333 15.24348588 81985 Shaonian Xing 1 43199U 18015H 19206.90391269 .00000879 00000-0 38175-4 0 9990 2 43199 97.3829 333.2366 0017405 169.1266 314.4634 15.24841229 82036 1KUNS-PF 1 43466U 98067NP 19206.84637850 .00013828 00000-0 13128-3 0 9992 2 43466 51.6360 145.6936 0000499 61.6035 298.5011 15.67204729 68747 UBAKUSAT 1 43467U 98067NQ 19206.30159789 .00008143 00000-0 92256-4 0 9998 2 43467 51.6362 153.3099 0001644 190.2796 169.8165 15.63397907 68604 Irazu 1 43468U 98067NR 19206.06374319 .00022483 00000-0 18398-3 0 9997 2 43468 51.6349 145.6843 0000825 57.5944 302.5134 15.70444625168668 EnduroSat One 1 43551U 98067NZ 19206.31807531 .00010828 00000-0 11959-3 0 9991 2 43551 51.6364 155.6703 0004714 291.3727 68.6764 15.63640488 58802 EQUISat 1 43552U 98067PA 19206.32836051 .00008997 00000-0 10573-3 0 9997 2 43552 51.6377 157.2637 0005121 288.3834 71.6603 15.62282213 58745 UiTMSat 1 1 43589U 98067PD 19206.32837397 .00009929 00000-0 11529-3 0 9999 2 43589 51.6351 157.9540 0004525 299.2923 60.7618 15.62456358 54478 Maya 1 1 43590U 98067PE 19206.13115279 .00009849 00000-0 11435-3 0 9995 2 43590 51.6353 158.8911 0004635 298.7818 61.2711 15.62470918 54370 Bhutan 1 1 43591U 98067PF 19205.28905273 .00009886 00000-0 11456-3 0 9996 2 43591 51.6365 163.0414 0004787 296.3750 63.6752 15.62513395 54241 SiriusSat 1 1 43595U 98067PG 19206.38179914 .00008581 00000-0 10347-3 0 9996 2 43595 51.6353 159.0650 0002431 248.4044 111.6691 15.61683546 53573 SiriusSat 2 1 43596U 98067PH 19206.86387037 .00008436 00000-0 10241-3 0 9999 2 43596 51.6363 157.0723 0002949 250.9959 109.0715 15.61532455 53649 Tanusha-3 1 43597U 98067PJ 19206.12018658 .00011055 00000-0 12400-3 0 9999 2 43597 51.6347 158.7900 0002404 270.6325 89.4394 15.63217957 53552 SurfSat 1 43614U 18070B 19206.75980499 .00001543 00000-0 41806-4 0 9999 2 43614 93.0234 18.9560 0016923 154.2891 205.9208 15.37637904 48105 CP-7 DAVE 1 43615U 18070C 19206.18174539 .00001552 00000-0 42182-4 0 9995 2 43615 93.0235 18.7178 0016928 155.7366 204.4689 15.37551088 48013 ELFIN-B 1 43616U 18070D 19206.76002890 .00002348 00000-0 62319-4 0 9998 2 43616 93.0204 18.8676 0017792 157.3523 202.8520 15.38216166 48110 ELFIN-A 1 43617U 18070E 19205.84205224 .00002409 00000-0 63890-4 0 9996 2 43617 93.0258 18.7321 0016926 157.3368 202.8636 15.38258987 47979 STARS-Me Mother 1 43640U 98067PQ 19206.16244548 .00005568 00000-0 76754-4 0 9996 2 43640 51.6364 164.3788 0004535 231.2220 128.8368 15.58926471 45418 CubeBel 1 1 43666U 18083E 19206.88003649 .00000588 00000-0 32545-4 0 9995 2 43666 97.5179 231.1017 0016694 62.0268 61.7383 15.17630775 40925 Changshagaoxin 1 43669U 18083H 19206.88115832 .00000381 00000-0 22806-4 0 9996 2 43669 97.5034 230.2947 0012456 55.7876 67.2597 15.16823316 40861 Ten-Koh 1 43677U 18084G 19205.88220231 .00000047 00000-0 10664-4 0 9993 2 43677 97.8550 319.3836 0016653 158.0565 202.1369 14.90177502 40000 PO-101 1 43678U 18084H 19206.90519455 .00000261 00000-0 31735-4 0 9997 2 43678 97.8549 320.9978 0009940 172.7652 187.3684 14.91564244 40193 IRVINE 01 1 43693U 18088D 19206.71039996 .00001334 00000-0 57209-4 0 9990 2 43693 85.0364 293.6692 0020406 61.3789 298.9502 15.21486697 38999 QO-100 1 43700U 18090A 19206.28737323 .00000148 00000-0 00000 0 0 9997 2 43700 0.0151 75.1747 0001504 70.1620 286.6124 1.00272722 2666 Reaktor Hello World 1 43743U 18096AA 19206.87378916 .00000658 00000-0 27859-4 0 9996 2 43743 97.4579 276.8299 0017729 199.8984 290.9383 15.26661140 36400 MinXSS-2 1 43758U 18099A 19206.75614396 .00000530 00000-0 53123-4 0 9999 2 43758 97.7436 278.3692 0015173 197.9931 162.0755 14.95427720 34978 AO-95 1 43770U 18099N 19206.18574051 -.00000184 00000-0 -11620-4 0 9996 2 43770 97.7435 277.5867 0013964 207.0757 152.9736 14.94780235 34879 RANGE-B 1 43772U 18099Q 19206.17211201 -.00000025 00000-0 30468-5 0 9997 2 43772 97.7491 277.7550 0013850 193.6406 166.4442 14.94892850 34869 RANGE-A 1 43773U 18099R 19206.17764228 -.00000289 00000-0 -21209-4 0 9995 2 43773 97.7383 277.4468 0013201 193.6448 166.4418 14.94813739 34863 MOVE-II 1 43780U 18099Y 19206.74796810 .00000720 00000-0 70931-4 0 9992 2 43780 97.7427 278.1901 0013119 201.9245 158.1416 14.95080420 34945 SNUSat 2 1 43782U 18099AA 19206.74286004 .00000505 00000-0 51315-4 0 9999 2 43782 97.7431 278.2281 0012581 190.7398 169.3556 14.95063874 34954 SnugLite 1 43784U 18099AC 19206.79783815 .00000195 00000-0 22993-4 0 9993 2 43784 97.7395 278.2050 0014729 200.1506 159.9135 14.95144972 34971 ITASat 1 1 43786U 18099AE 19206.19347337 -.00000012 00000-0 41829-5 0 9993 2 43786 97.7448 277.7742 0014773 201.3512 158.7094 14.95148429 34885 EAGLET 1 1 43790U 18099AJ 19206.20120559 .00000220 00000-0 25077-4 0 9991 2 43790 97.7439 277.8904 0012881 205.7417 154.3165 14.95521859 34581 ESEO 1 43792U 18099AL 19206.86805751 .00000175 00000-0 21048-4 0 9992 2 43792 97.7418 278.4997 0012866 200.2067 159.8646 14.95511923 34746 CSIM 1 43793U 18099AM 19206.18090205 -.00000148 00000-0 -80712-5 0 9994 2 43793 97.7385 277.7211 0012665 200.0134 160.0592 14.95717383 34619 Astrocast 0.1 1 43798U 18099AS 19206.16509705 .00000049 00000-0 96069-5 0 9997 2 43798 97.7431 277.8969 0012260 184.4549 175.6565 14.95743078 34873 JO-97 1 43803U 18099AX 19206.17502115 -.00000224 00000-0 -15057-4 0 9997 2 43803 97.7410 277.6677 0014602 202.0375 158.0219 14.95284752 34877 Suomi 100 1 43804U 18099AY 19206.17455397 -.00000201 00000-0 -13004-4 0 9992 2 43804 97.7408 277.6650 0014671 202.1880 157.8707 14.95284232 34887 Al Farabi 2 1 43805U 18099AZ 19206.83769774 -.00000063 00000-0 -45386-6 0 9999 2 43805 97.7412 278.3375 0014760 199.8289 160.2360 14.95345097 34980 PWSat 2 1 43814U 18099BJ 19206.24977308 .00009876 00000-0 79055-3 0 9994 2 43814 97.7749 279.1344 0010427 184.0835 176.0329 15.00336187 34333 CHOMPTT 1 43855U 18104G 19206.76931008 .00000592 00000-0 23751-4 0 9999 2 43855 85.0372 31.9243 0017672 170.8220 189.3356 15.22416990 33669 ISAT 1 43879U 18111D 19206.71407871 -.00000117 00000-0 -52455-5 0 9993 2 43879 97.7158 114.1833 0011594 260.7088 99.2822 14.96006817 29478 UWE-4 1 43880U 18111E 19206.74669967 .00000328 00000-0 34224-4 0 9999 2 43880 97.7161 114.3198 0010869 260.2629 99.7365 14.96243715 29488 Sparrow 1 43881U 18111F 19205.80405730 .00000015 00000-0 64427-5 0 9994 2 43881 97.7165 113.4159 0011072 263.1585 96.8376 14.96290900 29343 Lume 1 1 43908U 18111AJ 19206.29814137 .00000512 00000-0 23683-4 0 9993 2 43908 97.2872 110.5498 0020431 218.9513 141.0254 15.24378046 32022 FO-98 1 43933U 19003B 19206.83846998 .00000288 00000-0 15715-4 0 9999 2 43933 97.2788 263.2008 0017125 319.1972 130.3942 15.21664350 28706 FO-99 1 43937U 19003F 19206.86847369 .00000607 00000-0 28108-4 0 9994 2 43937 97.2740 263.6305 0023336 304.0498 143.0852 15.23624238 28747 Delphini 1 1 44030U 98067PW 19206.32337738 .00006995 00000-0 10150-3 0 9994 2 44030 51.6376 167.7087 0003893 290.6393 69.4182 15.57053365 27258 MYSat 1 1 44045U 18092F 19206.37434227 .00000384 00000-0 22300-4 0 9993 2 44045 51.6410 193.2440 0011593 213.1793 146.8477 15.35037195 24871 AstroCast 0.2 1 44083U 19018F 19206.77011076 .00000242 00000-0 13927-4 0 9999 2 44083 97.4661 266.4589 0012625 235.0176 124.9875 15.21401619 17558 AISTechSat 3 1 44103U 19018AB 19206.82506406 .00000355 00000-0 18290-4 0 9997 2 44103 97.4533 266.5257 0012002 256.2595 195.3129 15.22661252 17579 AISat 1 1 44104U 19018AC 19206.74031400 .00000315 00000-0 12967-4 0 9997 2 44104 97.5071 268.5948 0057482 296.2077 63.3260 15.30503955 17672 OBJECT A 1 44339U 19036A 19206.48331802 -.00000021 00000-0 -55673-4 0 9994 2 44339 24.0015 14.8981 0011380 167.6288 192.4445 14.52651531 4386 OBJECT D 1 44342U 19036D 19205.78852819 .00000188 00000-0 -57241-5 0 9993 2 44342 24.0013 19.1406 0013640 157.4470 202.6641 14.53192286 4288 OBJECT H 1 44346U 19036H 19206.74801244 .00008519 00000-0 13550-3 0 9998 2 44346 28.5243 3.1661 0390895 67.5756 296.5791 14.96110389 4560 OBJECT J 1 44347U 19036J 19206.80188165 .00021523 00000-0 34909-3 0 9997 2 44347 28.5321 2.6429 0386831 68.2950 295.8356 14.97028871 4578 OBJECT K 1 44348U 19036K 19205.86999939 .00006272 00000-0 96071-4 0 9995 2 44348 28.5197 8.6939 0390809 58.1550 305.6472 14.96597895 4436 JAISAT-1 1 44419U 19038F 19206.15083009 .00000356 00000-0 24253-4 0 9991 2 44419 97.4911 167.7323 0021800 178.0519 182.0801 15.12252398 2972 LightSail-2 1 44420U 19036AC 19206.76016771 .00001334 00000-0 27001-3 0 9990 2 44420 24.0054 13.1778 0011647 172.1592 187.9518 14.52533850 2562 CAS-7B 1 99999U 19206.21942130 .00000000 00000-0 00000-0 0 00008 2 99999 042.7823 008.1961 0016683 288.0410 222.2116 15.95196322000015 /EX